TimeEST,TemperatureF,Dew PointF,Humidity,Sea Level PressureIn,VisibilityMPH,Wind Direction,Wind SpeedMPH,Gust SpeedMPH,PrecipitationIn,Events,Conditions,WindDirDegrees,DateUTC
12:53 AM,28.9,19.0,67,30.35,10.0,South,5.8,-,N/A,,Clear,170,2013-01-19 05:53:00
1:53 AM,30.0,19.9,66,30.35,10.0,South,8.1,-,N/A,,Clear,180,2013-01-19 06:53:00
2:53 AM,30.0,19.9,66,30.34,10.0,South,8.1,-,N/A,,Clear,170,2013-01-19 07:53:00
3:53 AM,30.0,19.9,66,30.32,10.0,South,5.8,-,N/A,,Clear,180,2013-01-19 08:53:00
4:53 AM,30.0,19.9,66,30.30,10.0,South,6.9,-,N/A,,Clear,170,2013-01-19 09:53:00
5:53 AM,30.9,19.0,61,30.29,10.0,South,5.8,-,N/A,,Clear,170,2013-01-19 10:53:00
6:53 AM,30.0,19.0,64,30.29,10.0,South,8.1,-,N/A,,Clear,170,2013-01-19 11:53:00
7:53 AM,30.9,19.0,61,30.28,10.0,SSE,6.9,-,N/A,,Clear,160,2013-01-19 12:53:00
8:53 AM,35.1,19.9,54,30.28,10.0,South,6.9,-,N/A,,Clear,180,2013-01-19 13:53:00
9:53 AM,42.1,21.9,45,30.28,10.0,South,8.1,-,N/A,,Clear,180,2013-01-19 14:53:00
10:53 AM,46.9,21.9,37,30.27,10.0,South,9.2,18.4,N/A,,Clear,190,2013-01-19 15:53:00
11:53 AM,50.0,21.9,33,30.21,10.0,South,10.4,18.4,N/A,,Clear,190,2013-01-19 16:53:00
12:53 PM,54.0,23.0,30,30.15,10.0,South,12.7,19.6,N/A,,Clear,190,2013-01-19 17:53:00
1:53 PM,57.0,19.9,24,30.11,10.0,SSW,12.7,21.9,N/A,,Clear,200,2013-01-19 18:53:00
2:53 PM,57.9,19.9,23,30.08,10.0,South,11.5,-,N/A,,Clear,190,2013-01-19 19:53:00
3:53 PM,57.0,19.0,23,30.05,10.0,SSW,9.2,19.6,N/A,,Clear,200,2013-01-19 20:53:00
4:53 PM,55.0,21.0,27,30.04,10.0,South,10.4,-,N/A,,Clear,170,2013-01-19 21:53:00
5:53 PM,50.0,26.1,39,30.03,10.0,South,6.9,-,N/A,,Clear,170,2013-01-19 22:53:00
6:53 PM,48.0,27.0,44,30.03,10.0,South,9.2,-,N/A,,Clear,170,2013-01-19 23:53:00
7:53 PM,45.0,26.1,48,30.02,10.0,South,4.6,-,N/A,,Clear,180,2013-01-20 00:53:00
8:53 PM,44.1,23.0,43,30.00,10.0,South,8.1,-,N/A,,Clear,190,2013-01-20 01:53:00
9:53 PM,45.0,23.0,42,29.98,10.0,SSW,8.1,-,N/A,,Clear,200,2013-01-20 02:53:00
10:53 PM,44.1,23.0,43,29.95,10.0,SSW,9.2,18.4,N/A,,Clear,200,2013-01-20 03:53:00